OneWeb SL0634

operational
NORAD ID: 56075 Int'l Des: 2023-043 Owner: ONEWEBN Country: UK Constellation: oneweb
LEOCIRCULARPOLARONEWEB_TYPE

关于 OneWeb SL0634

正在加载描述...

实时位置

正在加载3D地球...

即将过境

高度历史

Altitude vs Time

uPlot chart will show altitude changes over time

两行轨道根数

1 56075U 23043AF 26036.64577502 -.00000058 00000-0 -18762-3 0 9990
2 56075 87.8983 285.4954 0001761 88.2142 271.9190 13.15548738139103
Epoch: Feb 5, 2026 • Age: 16 hours

当前状态

高度 1231.2 km
速度 7.24 km/s
星下点 -79.74°S, 130.73°W
发射日期 Mar 26, 2023
运行时间 2.8 years
类型 internet

技术详情

分类 Payload
质量 148.00 kg
干质量 140.00 kg
总质量 148.00 kg
长度 1.30 m
直径 1.00 m
跨度 5.00 m
形状 Trapezoid+2 pan
制造商 ONEWUS
平台类型 ARROW
阶段状态 In Orbit
所有者/国家 ONEWEBN/UK

大型星座

Loading constellations...